Montana Department of Transportation

Main Content

Accidents and Incidents Report

Hourly Weather Roundup

ASUS45 KTFX 042310
RWRMT 
MONTANA REGIONAL WEATHER ROUNDUP
NATIONAL WEATHER SERVICE GREAT FALLS MT
500 PM MDT TUE AUG 04 2015

NOTE: "FAIR" INDICATES FEW OR NO CLOUDS BELOW 12000 FEET WITH NO
SIGNIFICANT WEATHER AND/OR OBSTRUCTIONS TO VISIBILITY.

MTZ001.007-043-050000-
WEST OF THE DIVIDE
  
CITY           SKY/WX    TMP DP  RH WIND       PRES   REMARKS
KALISPELL      MOCLDY    85  45  24 SE13      29.87F                  
MISSOULA       MOSUNNY   87  40  19 N6        29.90F                  
BUTTE          MOSUNNY   77  41  27 N13       30.05F                  
MULLAN PASS    SUNNY     70  39  32 VRB3      30.10F                  
DEER LODGE       N/A     82  43  24 S5        30.02F                  
EUREKA           N/A     88  36  15 SW9G17    29.83F                  
HAMILTON         N/A     84  41  21 N5        29.91F                  
LIBBY            N/A     88  39  18 S7        29.85F                  
--------------------------------

MTZ008-052.055-050000-
SOUTHWEST MONTANA
  
CITY           SKY/WX    TMP DP  RH WIND       PRES   REMARKS
BOZEMAN        CLOUDY    71  52  50 NE5       30.02R                  
DILLON         MOSUNNY   82  41  23 W13       29.99F                  
W YELLOWSTONE  MOSUNNY   66  46  48 SW22G29   30.16R                  
--------------------------------

MTZ009-010-012-014-046-048-049-054-050000-
EAST SLOPES AND CENTRAL MONTANA
  
CITY           SKY/WX    TMP DP  RH WIND       PRES   REMARKS
CUT BANK       PTSUNNY   81  43  26 NW5       29.91F                  
GREAT FALLS    CLOUDY    79  44  28 SE9       29.91F                  
MALMSTROM AFB  RAIN      77  48  35 SW10G43   29.94R                  
HELENA         CLOUDY    79  52  38 E10       29.94S                  
CONRAD           N/A     82  52  35 NE7       29.95F                  
--------------------------------

MTZ011-013-016-021-045-047-050-051-050000-
NORTH CENTRAL MONTANA
  
CITY           SKY/WX    TMP DP  RH WIND       PRES   REMARKS
HAVRE          CLOUDY    80  54  40 S9        29.87F                  
LEWISTOWN      PTSUNNY   75  54  47 SE9       29.98F                  
CHINOOK          N/A     77  54  44 SW3       29.87S                  
FORT BENTON      N/A     81  52  36 E12       29.88F                  
--------------------------------

MTZ017.020-022.027-061-062-050000-
NORTHEAST MONTANA
  
CITY           SKY/WX    TMP DP  RH WIND       PRES   REMARKS
GLASGOW        PTSUNNY   77  57  50 NW16      29.85R                  
JORDAN           N/A     85  50  29 W24G35    29.87R                  
SIDNEY         PTSUNNY  N/A N/A N/A SE10      29.85S                  
WOLF POINT     CLOUDY    92  53  26 E14       29.80F                  
MALTA            N/A     83  53  35 W14       29.84R                  
PLENTYWOOD       N/A     88  52  29 SE9G22    29.87F                  
POPLAR           N/A     91  54  27 SE12      29.83F                  
--------------------------------

MTZ028.42-056.058-050000-
SOUTHCENTRAL AND SOUTHEAST MONTANA
  
CITY           SKY/WX    TMP DP  RH WIND       PRES   REMARKS
BAKER          MOSUNNY   88  53  30 SE14G25   29.91S                  
BILLINGS       MOSUNNY   78  51  38 VRB6      29.99R                  
LIVINGSTON     PTSUNNY   76  51  41 NE10      30.04R                  
MILES CITY     TSTM      79  58  48 NW15      29.87F                  
EKALAKA          N/A     82  54  38 E12       29.92R                  
FORSYTH          N/A     79  55  44 W12       29.90S                  
LAUREL           N/A     77  52  41 CALM      29.99R                  
--------------------------------

REGIONAL REPORTS...DAKOTAS
  
CITY           SKY/WX    TMP DP  RH WIND       PRES   REMARKS
WILLISTON      SUNNY     90  53  28 SE13      29.88F                  
MINOT          MOSUNNY   82  48  30 E12       29.95S                  
DICKINSON      MOSUNNY   84  56  38 SE15      29.92F                  
CROSBY         FAIR      82  52  34 SE10G20   29.93S                  
BISMARCK       SUNNY     86  55  34 SE829.94F                  
GRAND FORKS    SUNNY     76  53  44 N6        30.00R                  
FARGO          MOSUNNY   80  51  36 NE6       29.99S                  
BUFFALO SD       N/A     84  61  45 SE23G29   29.86S                  
RAPID CITY     PTSUNNY   85  58  39 S14G20    29.94S                  
--------------------------------

REGIONAL REPORTS...WYOMING/IDAHO/WASHINGTON
  
CITY           SKY/WX    TMP DP  RH WIND       PRES   REMARKS
GILLETTE       CLOUDY    66  59  78 W16G24    29.99R                  
SHERIDAN       CLOUDY    76  53  44 NW17      29.99F                  
BUFFALO WY     CLOUDY    69  58  67 N7        30.05F                  
CODY           PTSUNNY   70  54  56 NE8       30.08R                  
YELLOWSTONE LA   N/A     67  39  35 W8        30.25R                  
IDAHO FALLS    PTSUNNY   79  46  31 VRB6      30.03S                  
SALMON         MOSUNNY   84  45  24 N9        29.90F                  
BOISE          SUNNY     91  47  21 NW12      29.89F                  
SPOKANE        PTSUNNY   84  41  21 SW12G25   29.87F                  
--------------------------------

REGIONAL REPORTS...ALBERTA
  
CITY           SKY/WX    TMP DP  RH WIND       PRES   REMARKS
EDMONTON       PTSUNNY   70  57  64 N9        29.89S                  
CALGARY        PTSUNNY   70  54  56 NE15      29.90F THUNDER          
LETHBRIDGE     PTSUNNY   81  48  32 SE6       29.86F                  
MEDICINE HAT   CLOUDY    84  50  30 SW9       29.83F                  
WATERTON GATE    N/A     81  39  22 W12G18      N/A                   
MILK RIVER       N/A     82  46  28 N5          N/A                   
--------------------------------

REGIONAL REPORTS...SASKATCHEWAN
  
CITY           SKY/WX    TMP DP  RH WIND       PRES   REMARKS
SWIFT CURRENT  MOSUNNY   81  55  41 W20G28    29.83S                  
REGINA         PTSUNNY   84  54  34 E17G25    29.89F                  
SASKATOON      LGT RAIN  72  61  68 E21       29.89S                  
CYPRESS HILLS    N/A     68  55  64 W2          N/A                   
VAL MARIE        N/A     82  52  34 W13         N/A                   
ROCKGLEN         N/A     81  54  39 SE13G18     N/A                   
--------------------------------